TimeEDT,TemperatureF,Dew PointF,Humidity,Sea Level PressureIn,VisibilityMPH,Wind Direction,Wind SpeedMPH,Gust SpeedMPH,PrecipitationIn,Events,Conditions,WindDirDegrees,DateUTC
12:53 AM,66.0,59.0,78,30.14,10.0,North,8.1,-,N/A,,Mostly Cloudy,10,2013-09-05 04:53:00
1:53 AM,64.0,57.9,80,30.15,10.0,NNE,10.4,-,N/A,,Overcast,30,2013-09-05 05:53:00
2:53 AM,59.0,52.0,78,30.16,10.0,NE,5.8,-,N/A,,Clear,50,2013-09-05 06:53:00
3:53 AM,57.9,53.1,84,30.17,10.0,Calm,Calm,-,N/A,,Scattered Clouds,0,2013-09-05 07:53:00
4:53 AM,57.0,48.9,74,30.18,10.0,Calm,Calm,-,N/A,,Clear,0,2013-09-05 08:53:00
5:53 AM,54.0,48.9,83,30.22,10.0,NE,3.5,-,N/A,,Partly Cloudy,50,2013-09-05 09:53:00
6:53 AM,52.0,48.0,86,30.24,10.0,NNE,4.6,-,N/A,,Scattered Clouds,30,2013-09-05 10:53:00
7:53 AM,53.1,48.0,83,30.26,10.0,NE,5.8,-,N/A,,Mostly Cloudy,40,2013-09-05 11:53:00
8:53 AM,55.9,46.0,69,30.27,10.0,ENE,10.4,-,N/A,,Mostly Cloudy,60,2013-09-05 12:53:00
9:53 AM,59.0,46.0,62,30.29,10.0,NE,9.2,-,N/A,,Mostly Cloudy,50,2013-09-05 13:53:00
10:53 AM,62.1,45.0,53,30.30,10.0,Variable,5.8,-,N/A,,Scattered Clouds,0,2013-09-05 14:53:00
11:53 AM,64.9,44.1,47,30.29,10.0,NNE,9.2,-,N/A,,Scattered Clouds,30,2013-09-05 15:53:00
12:53 PM,66.9,44.1,44,30.29,10.0,Variable,3.5,-,N/A,,Scattered Clouds,0,2013-09-05 16:53:00
1:53 PM,70.0,43.0,38,30.28,10.0,North,8.1,-,N/A,,Partly Cloudy,10,2013-09-05 17:53:00
2:53 PM,70.0,41.0,35,30.27,10.0,ENE,9.2,-,N/A,,Partly Cloudy,60,2013-09-05 18:53:00
3:53 PM,72.0,41.0,33,30.26,10.0,ENE,8.1,-,N/A,,Partly Cloudy,70,2013-09-05 19:53:00
4:53 PM,72.0,41.0,33,30.25,10.0,NNE,8.1,-,N/A,,Partly Cloudy,30,2013-09-05 20:53:00
5:53 PM,71.1,41.0,34,30.25,10.0,ENE,5.8,-,N/A,,Clear,70,2013-09-05 21:53:00
6:53 PM,72.0,42.1,34,30.25,10.0,Calm,Calm,-,N/A,,Clear,0,2013-09-05 22:53:00
7:53 PM,66.9,44.1,44,30.24,10.0,East,4.6,-,N/A,,Clear,80,2013-09-05 23:53:00
8:53 PM,64.0,46.0,52,30.25,10.0,East,3.5,-,N/A,,Clear,100,2013-09-06 00:53:00
9:53 PM,59.0,46.9,64,30.26,10.0,East,4.6,-,N/A,,Clear,100,2013-09-06 01:53:00
10:53 PM,59.0,46.0,62,30.26,10.0,Calm,Calm,-,N/A,,Clear,0,2013-09-06 02:53:00
11:53 PM,57.0,45.0,64,30.26,10.0,Calm,Calm,-,N/A,,Clear,0,2013-09-06 03:53:00